This demonstration page uses our WeatherBlox Daily Observations layout. Learn more.

Left ArrowRight Arrow

Hourly Observations for November 10, 2018

Temp ( °F °C ) Dew Point ( °F °C ) Humidity (%) Winds ( mph kmh ) Pressure ( in mb ) Visibility ( mi km ) Precip ( " mm )
12:26 am 00:26 Cloudy 32 undefined 24 -4.4 73 73 W 8 13 30.24 1024 10 16 N/A
12:53 am 00:53 Mostly Cloudy 31 -0.6 22 -5.6 69 69 WNW 10 17 30.22 1023 10 16 N/A
1:53 am 01:53 Cloudy 31 -0.6 22 -5.6 69 69 WNW 10 17 30.23 1024 10 16 N/A
2:53 am 02:53 Cloudy 30 -1.1 22 -5.6 72 72 W 8 13 30.24 1024 9 14 N/A
3:33 am 03:33 Cloudy 30 -1.1 22 -5.6 72 72 W 12 19 30.27 1025 10 16 N/A
3:53 am 03:53 Cloudy 30 -1.1 21 -6.1 69 69 WNW 13 20 30.27 1025 10 16 N/A
4:15 am 04:15 Cloudy 29 -1.7 18 -7.8 63 63 WNW 23 37 30.30 1026 10 16 N/A
4:53 am 04:53 Cloudy 25 -3.9 15 -9.4 66 66 WNW 21 33 30.32 1027 10 16 N/A
5:53 am 05:53 Clear 24 -4.4 13 -10.6 62 62 W 8 13 30.35 1028 10 16 N/A
6:53 am 06:53 Clear 23 -5 11 -11.7 60 60 W 9 15 30.38 1029 10 16 N/A
7:53 am 07:53 Sunny 23 -5 12 -11.1 63 63 W 9 15 30.41 1030 10 16 N/A
8:53 am 08:53 Sunny 24 -4.4 13 -10.6 62 62 W 13 20 30.44 1031 10 16 N/A
9:53 am 09:53 Sunny 26 -3.3 14 -10 60 60 WNW 14 22 30.45 1031 10 16 N/A
10:53 am 10:53 Sunny 28 -2.2 15 -9.4 58 58 WNW 12 19 30.47 1032 10 16 N/A
11:53 am 11:53 Sunny 30 -1.1 16 -8.9 56 56 NW 10 17 30.47 1032 10 16 N/A
12:53 pm 12:53 Sunny 32 undefined 17 -8.3 54 54 N N/A 30.45 1031 10 16 N/A
1:53 pm 13:53 Sunny 34 1.1 18 -7.8 52 52 WNW 8 13 30.43 1031 10 16 N/A
2:53 pm 14:53 Sunny 34 1.1 17 -8.3 50 50 NW 6 9 30.43 1031 10 16 N/A
3:53 pm 15:53 Sunny 35 1.7 17 -8.3 48 48 VRB 5 7 30.43 1030 10 16 N/A
4:53 pm 16:53 Sunny 33 0.6 17 -8.3 52 52 NW 6 9 30.42 1030 10 16 N/A
5:53 pm 17:53 Clear 30 -1.1 19 -7.2 64 64 N 3 6 30.41 1030 10 16 N/A
6:53 pm 18:53 Clear 27 -2.8 21 -6.1 78 78 N N/A 30.42 1030 10 16 N/A
7:53 pm 19:53 Clear 25 -3.9 19 -7.2 78 78 N N/A 30.43 1030 10 16 N/A
8:53 pm 20:53 Clear 24 -4.4 19 -7.2 81 81 N N/A 30.42 1030 10 16 N/A
9:53 pm 21:53 Clear 22 -5.6 17 -8.3 82 82 N N/A 30.42 1030 10 16 N/A
10:53 pm 22:53 Clear 21 -6.1 17 -8.3 85 85 N N/A 30.42 1030 10 16 N/A
11:53 pm 23:53 Clear 21 -6.1 16 -8.9 81 81 N N/A 30.42 1030 10 16 N/A

Powered by AerisWeather